Meacham, OR

5:45 AM PDT on October 22, 2017 (GMT -0700)
Meacham

Weather History for KMEH - June, 2013

Change the Weather History Date:

Tuesday, June 18, 2013

  Actual Average Record
Temperature  
Mean Temperature 50 °F -  
Max Temperature 55 °F 66 °F 78 °F (2015)
Min Temperature 46 °F 36 °F 30 °F (2001)
Degree Days  
Heating Degree Days 14    
Moisture  
Dew Point 45 °F    
Average Humidity 81    
Maximum Humidity 93    
Minimum Humidity 64    
Precipitation  
Precipitation 0.02 in - - ()
Sea Level Pressure  
Sea Level Pressure 29.93 in    
Wind  
Wind Speed 1 mph (North)    
Max Wind Speed 4 mph    
Max Gust Speed -    
Visibility 10 miles    
Events Rain    
Averages and records for this station are not official NWS values.
T = Trace of Precipitation, MM = Missing Value Source: NWS Daily Summary

Daily Weather History Graph

Daily Weather History Graph

Search for Another Location

Airport or City:

Trip Planner

Search our weather history database for the weather conditions in past years. The results will help you decide how hot, cold, wet, or windy it might be!

Date:

Astronomy

Jun. 18, 2013 Rise Set
Actual Time 5:04 AM PDT 8:45 PM PDT
Civil Twilight 4:26 AM PDT 9:23 PM PDT
Nautical Twilight 3:35 AM PDT 10:14 PM PDT
Astronomical Twilight 2:26 AM PDT 11:23 PM PDT
Moon 3:24 PM PDT (6/18) 1:28 AM PDT (6/18)
Length of Visible Light 16h 57m
Length of Day
15h 41m
Waxing Gibbous, 72% of the Moon is Illuminated
Jun 18
Waxing Gibbous
Jun 23
Full
Jun 29
Last Quarter
Jul 8
New
Jul 15
First Quarter

Hourly Weather History & Observations

Time (PDT) Temp. Dew Point Humidity Pressure Visibility Wind Dir Wind Speed Gust Speed Precip Events Conditions
12:56 AM 55.9 °F 44.1 °F 64% 29.92 in 10.0 mi Calm Calm - N/A   Clear
1:56 AM 53.1 °F 44.1 °F 71% 29.92 in 10.0 mi Calm Calm - N/A   Clear
2:56 AM 53.1 °F 44.1 °F 71% 29.92 in 10.0 mi Calm Calm - N/A   Overcast
3:56 AM 53.1 °F 44.1 °F 71% 29.93 in 10.0 mi Calm Calm - N/A   Overcast
4:25 AM 51.8 °F 44.6 °F 76% 29.99 in 10.0 mi Variable 3.5 mph - N/A   Overcast
4:56 AM 52.0 °F 45.0 °F 77% 29.94 in 10.0 mi Variable 3.5 mph - N/A   Overcast
5:56 AM 51.1 °F 45.0 °F 80% 29.94 in 10.0 mi Calm Calm - N/A   Overcast
6:07 AM 51.8 °F 44.6 °F 76% 29.99 in 10.0 mi Calm Calm - N/A   Overcast
6:56 AM 51.1 °F 45.0 °F 80% 29.94 in 10.0 mi Calm Calm - N/A   Overcast
7:19 AM 51.8 °F 44.6 °F 76% 29.99 in 10.0 mi Calm Calm - N/A   Overcast
7:56 AM 51.1 °F 45.0 °F 80% 29.94 in 10.0 mi Calm Calm - N/A   Overcast
8:29 AM 51.8 °F 44.6 °F 76% 29.98 in 10.0 mi Calm Calm - N/A   Overcast
8:56 AM 52.0 °F 45.0 °F 77% 29.94 in 10.0 mi Variable 3.5 mph - N/A   Overcast
9:35 AM 51.8 °F 44.6 °F 76% 29.98 in 10.0 mi Variable 3.5 mph - N/A   Overcast
9:56 AM 52.0 °F 45.0 °F 77% 29.94 in 10.0 mi Calm Calm - N/A   Overcast
10:34 AM 51.8 °F 44.6 °F 76% 29.97 in 10.0 mi Calm Calm - N/A   Overcast
10:56 AM 52.0 °F 45.0 °F 77% 29.93 in 10.0 mi Variable 3.5 mph - N/A   Overcast
11:56 AM 50.0 °F 44.1 °F 80% 29.94 in 10.0 mi Variable 3.5 mph - N/A   Overcast
12:56 PM 51.1 °F 44.1 °F 77% 29.93 in 10.0 mi Variable 3.5 mph - N/A   Overcast
1:56 PM 50.0 °F 44.1 °F 80% 29.94 in 10.0 mi Variable 3.5 mph - N/A   Overcast
2:56 PM 51.1 °F 44.1 °F 77% 29.93 in 10.0 mi Calm Calm - N/A   Overcast
3:56 PM 51.1 °F 44.1 °F 77% 29.92 in 10.0 mi Calm Calm - N/A   Overcast
5:00 PM 48.2 °F 46.4 °F 93% 29.93 in 3.0 mi Calm Calm - N/A   Overcast
5:24 PM 50.0 °F 46.4 °F 87% 29.91 in 10.0 mi Calm Calm - N/A   Overcast
5:56 PM 50.0 °F 46.0 °F 86% 29.90 in 6.0 mi Calm Calm - 0.01 in Rain Light Rain
6:37 PM 48.2 °F 46.4 °F 93% 29.90 in 10.0 mi Calm Calm - 0.01 in   Overcast
6:56 PM 48.9 °F 46.0 °F 90% 29.91 in 10.0 mi Calm Calm - 0.01 in   Overcast
7:14 PM 48.2 °F 46.4 °F 93% 29.90 in 10.0 mi Calm Calm - N/A   Overcast
7:56 PM 48.0 °F 45.0 °F 89% 29.90 in 10.0 mi Calm Calm - N/A   Overcast
8:31 PM 48.2 °F 44.6 °F 87% 29.91 in 10.0 mi Calm Calm - N/A   Overcast
8:56 PM 48.0 °F 45.0 °F 89% 29.90 in 10.0 mi Calm Calm - N/A   Overcast
9:04 PM 48.2 °F 44.6 °F 87% 29.91 in 10.0 mi Calm Calm - N/A   Overcast
9:56 PM 46.9 °F 44.1 °F 90% 29.89 in 10.0 mi Calm Calm - N/A   Mostly Cloudy
10:56 PM 46.0 °F 44.1 °F 93% 29.89 in 10.0 mi Calm Calm - N/A   Mostly Cloudy
11:56 PM 46.0 °F 43.0 °F 89% 29.87 in 10.0 mi Calm Calm - N/A   Mostly Cloudy